TimeCST,TemperatureF,Dew PointF,Humidity,Sea Level PressureIn,VisibilityMPH,Wind Direction,Wind SpeedMPH,Gust SpeedMPH,PrecipitationIn,Events,Conditions,WindDirDegrees,DateUTC
12:15 AM,26.6,23.0,86,30.05,3.0,West,8.1,-,N/A,Snow,Light Snow,270,2013-02-04 06:15:00
12:35 AM,24.8,23.0,93,30.05,1.5,West,5.8,-,N/A,Snow,Light Snow,260,2013-02-04 06:35:00
12:55 AM,24.8,23.0,93,30.04,7.0,WNW,3.5,-,N/A,,Overcast,300,2013-02-04 06:55:00
1:15 AM,24.8,23.0,93,30.03,10.0,Calm,Calm,-,N/A,,Mostly Cloudy,0,2013-02-04 07:15:00
1:35 AM,24.8,23.0,93,30.03,10.0,Calm,Calm,-,N/A,,Mostly Cloudy,0,2013-02-04 07:35:00
1:55 AM,24.8,23.0,93,30.02,10.0,Calm,Calm,-,N/A,,Mostly Cloudy,0,2013-02-04 07:55:00
2:15 AM,24.8,23.0,93,30.00,10.0,SE,4.6,-,N/A,,Mostly Cloudy,130,2013-02-04 08:15:00
2:35 AM,24.8,23.0,93,29.99,10.0,SE,4.6,-,N/A,,Overcast,130,2013-02-04 08:35:00
2:55 AM,24.8,23.0,93,29.98,10.0,SE,5.8,-,N/A,,Mostly Cloudy,140,2013-02-04 08:55:00
3:15 AM,24.8,23.0,93,29.97,10.0,SSE,5.8,-,N/A,,Mostly Cloudy,150,2013-02-04 09:15:00
4:55 AM,26.6,21.2,80,29.92,10.0,SE,8.1,-,N/A,,Mostly Cloudy,140,2013-02-04 10:55:00
5:15 AM,26.6,21.2,80,29.91,10.0,SE,9.2,-,N/A,,Mostly Cloudy,140,2013-02-04 11:15:00
5:35 AM,26.6,21.2,80,29.91,10.0,SSE,9.2,-,N/A,,Overcast,150,2013-02-04 11:35:00
5:55 AM,26.6,21.2,80,29.89,10.0,SE,8.1,-,N/A,,Mostly Cloudy,140,2013-02-04 11:55:00
6:15 AM,26.6,21.2,80,29.88,10.0,SE,9.2,-,N/A,,Mostly Cloudy,140,2013-02-04 12:15:00
6:35 AM,26.6,21.2,80,29.87,10.0,SSE,9.2,-,N/A,,Scattered Clouds,150,2013-02-04 12:35:00
6:55 AM,26.6,21.2,80,29.87,10.0,SE,9.2,-,N/A,,Scattered Clouds,140,2013-02-04 12:55:00
7:15 AM,26.6,21.2,80,29.87,10.0,SE,6.9,-,N/A,,Mostly Cloudy,140,2013-02-04 13:15:00
7:35 AM,28.4,21.2,74,29.87,10.0,SE,6.9,-,N/A,,Overcast,130,2013-02-04 13:35:00
7:55 AM,28.4,21.2,74,29.87,10.0,SE,6.9,-,N/A,,Overcast,140,2013-02-04 13:55:00
8:15 AM,28.4,21.2,74,29.88,10.0,SE,4.6,-,N/A,,Overcast,140,2013-02-04 14:15:00
8:35 AM,28.4,21.2,74,29.87,10.0,SE,6.9,-,N/A,,Overcast,140,2013-02-04 14:35:00
8:55 AM,28.4,21.2,74,29.86,10.0,SE,8.1,-,N/A,,Overcast,130,2013-02-04 14:55:00
9:15 AM,28.4,21.2,74,29.86,10.0,ESE,5.8,-,N/A,,Mostly Cloudy,120,2013-02-04 15:15:00
9:55 AM,30.2,21.2,69,29.86,10.0,ESE,5.8,-,N/A,,Overcast,120,2013-02-04 15:55:00
10:15 AM,30.2,23.0,75,29.85,10.0,SE,4.6,-,N/A,,Overcast,140,2013-02-04 16:15:00
10:35 AM,30.2,23.0,75,29.86,10.0,ESE,4.6,-,N/A,,Overcast,120,2013-02-04 16:35:00
10:55 AM,30.2,23.0,75,29.85,10.0,NNE,6.9,-,N/A,,Overcast,20,2013-02-04 16:55:00
11:15 AM,32.0,23.0,69,29.83,10.0,SE,6.9,-,N/A,,Overcast,130,2013-02-04 17:15:00
11:35 AM,32.0,23.0,69,29.83,10.0,SSE,3.5,-,N/A,,Mostly Cloudy,150,2013-02-04 17:35:00
11:55 AM,32.0,23.0,69,29.82,10.0,Calm,Calm,-,N/A,,Scattered Clouds,0,2013-02-04 17:55:00
1:15 PM,-9999,-9999,N/A,29.82,-9999.0,Calm,Calm,-,N/A,,Unknown,0,2013-02-04 19:15:00
1:35 PM,32.0,26.6,80,29.81,10.0,NNW,3.5,-,N/A,,Scattered Clouds,330,2013-02-04 19:35:00
1:55 PM,32.0,26.6,80,29.81,10.0,Calm,Calm,-,N/A,,Overcast,0,2013-02-04 19:55:00
2:15 PM,32.0,26.6,80,29.82,10.0,North,3.5,-,N/A,,Overcast,360,2013-02-04 20:15:00
2:35 PM,32.0,26.6,80,29.83,10.0,North,6.9,-,N/A,,Unknown,360,2013-02-04 20:35:00
2:55 PM,32.0,26.6,80,29.83,10.0,North,8.1,-,0.03,,Overcast,360,2013-02-04 20:55:00
3:15 PM,32.0,26.6,80,29.84,10.0,North,8.1,-,N/A,,Overcast,360,2013-02-04 21:15:00
3:35 PM,32.0,26.6,80,29.84,10.0,North,10.4,-,N/A,,Overcast,360,2013-02-04 21:35:00
3:55 PM,30.2,26.6,86,29.84,10.0,North,9.2,-,N/A,,Overcast,360,2013-02-04 21:55:00
4:15 PM,30.2,26.6,86,29.83,10.0,North,3.5,-,N/A,,Overcast,360,2013-02-04 22:15:00
4:35 PM,30.2,26.6,86,29.83,10.0,Calm,Calm,-,N/A,,Overcast,0,2013-02-04 22:35:00
4:55 PM,30.2,24.8,80,29.84,10.0,North,8.1,-,N/A,,Overcast,360,2013-02-04 22:55:00
5:15 PM,30.2,24.8,80,29.86,10.0,North,5.8,-,N/A,,Overcast,350,2013-02-04 23:15:00
5:35 PM,30.2,24.8,80,29.87,10.0,North,8.1,-,N/A,,Overcast,350,2013-02-04 23:35:00
5:55 PM,30.2,24.8,80,29.88,10.0,North,9.2,-,N/A,,Overcast,360,2013-02-04 23:55:00
6:15 PM,30.2,26.6,86,29.89,10.0,North,8.1,-,N/A,,Overcast,350,2013-02-05 00:15:00
6:35 PM,30.2,26.6,86,29.90,10.0,North,8.1,-,N/A,,Overcast,350,2013-02-05 00:35:00
7:15 PM,30.2,26.6,86,29.92,10.0,NNW,4.6,-,N/A,,Overcast,340,2013-02-05 01:15:00
7:35 PM,30.2,24.8,80,29.92,10.0,NNW,5.8,-,N/A,,Overcast,340,2013-02-05 01:35:00
7:55 PM,30.2,24.8,80,29.92,10.0,North,6.9,-,N/A,,Overcast,360,2013-02-05 01:55:00
8:15 PM,28.4,24.8,86,29.91,10.0,NE,5.8,-,N/A,,Overcast,40,2013-02-05 02:15:00
8:35 PM,28.4,24.8,86,29.92,10.0,Calm,Calm,-,N/A,,Overcast,0,2013-02-05 02:35:00
8:55 PM,28.4,26.6,93,29.93,10.0,Calm,Calm,-,N/A,,Overcast,0,2013-02-05 02:55:00
9:15 PM,28.4,24.8,86,29.93,10.0,North,3.5,-,N/A,,Overcast,350,2013-02-05 03:15:00
9:35 PM,28.4,26.6,93,29.94,10.0,Calm,Calm,-,N/A,,Overcast,0,2013-02-05 03:35:00
9:55 PM,28.4,24.8,86,29.92,10.0,North,4.6,-,N/A,,Overcast,10,2013-02-05 03:55:00
10:15 PM,28.4,24.8,86,29.91,10.0,Calm,Calm,-,N/A,,Mostly Cloudy,0,2013-02-05 04:15:00
10:35 PM,26.6,24.8,93,29.91,10.0,Calm,Calm,-,N/A,,Scattered Clouds,0,2013-02-05 04:35:00
10:55 PM,28.4,24.8,86,29.94,10.0,Calm,Calm,-,N/A,,Scattered Clouds,0,2013-02-05 04:55:00
11:15 PM,28.4,24.8,86,29.92,10.0,NNE,3.5,-,N/A,,Scattered Clouds,30,2013-02-05 05:15:00
11:35 PM,26.6,24.8,93,29.93,10.0,Calm,Calm,-,N/A,,Mostly Cloudy,0,2013-02-05 05:35:00
11:55 PM,26.6,24.8,93,29.93,10.0,Calm,Calm,-,N/A,,Scattered Clouds,0,2013-02-05 05:55:00